Погода в Милочере

Черногория     42°15′53″N   18°53′39″E
темп.,
°C
ветер,
м/с
пор.,
м/с
влажн.,
%
обл.,
%
осадки,
мм/ч
давл.,
гПа
погр.,
м
12 мая, ср
ср1223:00+14вюв127554 0.0 101225
02:00+14всв227545 0.0 101231
05:00+13всв118298 0.0 101030
08:00+15в2382100 0.2 1010116
11:00+16ю2385100 1.4 1010336
14:00+18ююв33715 2.3 1010891
17:00+17юз23712 0.2 1010703
20:00+13ююв11870 0.2 101029
13 мая, чт
чт1323:00+12юз018612 0.1 101117
02:00+12с01862 0.2 101017
05:00+11всв118777 0.0 100933
08:00+14юз227799 0.2 1009389
11:00+15юз466887 0.9 10101155
14:00+15ююз476893 1.9 10101061
17:00+15ю5680100 1.8 1010686
20:00+13юв2490100 3.1 1010145
14 мая, пт
пт1423:00+12всв239538 2.3 1011130
02:00+11св349755 4.8 1011159
05:00+11всв239643 3.8 1011139
08:00+14юз14715 4.8 1012878
11:00+17ю35593 0.5 10131270
14:00+17юз36575 0.8 10141286
17:00+17ю3354100 0.0 1013927
20:00+14ююв2480100 0.1 101496
15 мая, сб
сб1523:00+13юв2485100 1.2 1014102
02:00+13ююв3592100 2.8 1013279
05:00+13ююв3691100 4.0 1011375
08:00+12ююв3494100 11.3 1011341
11:00+12св3494100 16.2 1010335
14:00+12юв2497100 57.1 1009387
17:00+12св0196100 20.6 1011248
20:00+11св2292100 24.6 1011117
16 мая, вс
вс1623:00+11с228420 0.1 101254
02:00+9с22845 0.1 101240
05:00+9ссв11835 0.0 101232
08:00+13всв11765 0.0 1012188
11:00+16ююз21656 0.0 1012728
14:00+16юз2268100 0.0 1012651
17:00+16юз22736 0.0 1012451
20:00+13зюз11876 0.0 101270